"Time","Temp","Dewpoint","Humidity","Pressure","Direction","Speed","Gust","Precip","PrecipRate"
"00:04:58","72.3","69.2","90","29.88","80","0","0","0.00","0.00"
"00:09:57","72.2","69.4","91","29.88","80","0","0","0.00","0.00"
"00:14:58","72","69.2","91","29.89","80","0","0","0.00","0.00"
"00:19:58","72","69.2","91.2","29.89","80","0","0","0.00","0.00"
"00:24:58","71.9","69.1","91","29.89","80","0","0","0.00","0.00"
"00:29:59","71.7","69.3","91.9","29.89","80","0","0","0.00","0.00"
"00:34:59","71.7","69.3","92","29.89","80","0","0","0.00","0.00"
"00:39:56","71.5","69.1","92","29.89","80","0","0","0.00","0.00"
"00:44:56","71.5","69.1","92","29.90","80","0","0","0.00","0.00"
"00:49:57","71.5","69.1","92","29.90","80","0","0","0.00","0.00"
"00:54:58","71.5","69.1","92","29.90","80","0","0","0.00","0.00"
"00:59:58","71.5","69.1","92","29.90","80","0","0","0.00","0.00"
"01:04:58","71.3","68.9","92","29.90","80","0","0","0.00","0.00"
"01:09:57","71.2","68.8","92","29.90","80","0","0","0.00","0.00"
"01:14:58","71.1","68.7","92","29.90","80","0","0","0.00","0.00"
"01:19:56","71.1","68.7","92","29.90","80","0","0","0.00","0.00"
"01:24:56","71","68.6","92","29.90","80","0","0","0.00","0.00"
"01:29:56","71","68.6","92","29.90","80","0","0","0.00","0.00"
"01:34:57","70.9","68.5","92","29.90","80","0.2","2.4","0.00","0.00"
"01:39:58","70.8","68.4","92","29.90","80","1.9","2.4","0.00","0.00"
"01:44:58","70.7","68.6","92.9","29.90","80","1.3","2.4","0.00","0.00"
"01:49:59","70.6","68.5","93","29.89","80","0.2","2.3","0.00","0.00"
"01:54:59","70.6","68.2","92","29.89","80","0","1.2","0.00","0.00"
"01:59:56","70.5","68.1","92","29.90","80","0","1.2","0.00","0.00"
"02:04:56","70.4","68","92","29.90","80","0","1.2","0.00","0.00"
"02:09:58","70.3","67.9","92","29.90","80","0","0","0.00","0.00"
"02:14:59","70.2","67.8","92","29.90","80","0","0","0.00","0.00"
"02:19:56","70.1","67.7","92","29.90","80","0.3","2.4","0.00","0.00"
"02:24:56","70","67.6","92","29.90","80","0","0","0.00","0.00"
"02:29:57","69.8","67.4","92","29.90","80","0","1.2","0.00","0.00"
"02:34:57","69.8","67.4","92","29.89","80","0","1.2","0.00","0.00"
"02:39:58","69.7","67.3","92","29.89","80","0","0","0.00","0.00"
"02:44:58","69.5","67.1","92","29.89","80","0","0","0.00","0.00"
"02:49:59","69.4","67.3","93","29.89","80","0","0","0.00","0.00"
"02:54:59","69.2","67.1","93","29.89","80","0","0","0.00","0.00"
"02:59:56","69.1","67","93","29.90","80","0","0","0.00","0.00"
"03:04:58","69","66.9","93","29.90","80","0","0","0.00","0.00"
"03:09:57","69","66.9","93","29.90","80","0","0","0.00","0.00"
"03:14:58","68.9","66.9","93.4","29.90","80","0","0","0.00","0.00"
"03:19:59","68.8","67","94","29.90","80","0","0","0.00","0.00"
"03:24:59","68.8","67","94","29.90","80","0","0","0.00","0.00"
"03:29:56","68.6","66.7","93.5","29.90","80","0","0","0.00","0.00"
"03:34:57","68.5","66.5","93.3","29.90","80","0","0","0.00","0.00"
"03:39:59","68.4","66.6","94","29.90","80","0","0","0.00","0.00"
"03:44:56","68.4","66.6","94","29.90","80","0","0","0.00","0.00"
"03:49:56","68.4","66.6","94","29.90","80","0","0","0.00","0.00"
"03:54:56","68.3","66.5","94","29.90","80","0","0","0.00","0.00"
"03:59:59","68.2","66.4","94","29.90","80","0","0","0.00","0.00"
"04:04:56","68.2","66.4","94","29.90","80","0","0","0.00","0.00"
"04:09:58","68.2","66.4","94","29.90","80","0","0","0.00","0.00"
"04:14:56","68.1","66.3","94","29.90","80","0","0","0.00","0.00"
"04:19:59","68","66.2","94","29.90","80","0","0","0.00","0.00"
"04:24:56","67.9","66.1","94","29.90","80","0","0","0.00","0.00"
"04:29:57","67.8","66","94","29.90","80","0","0","0.00","0.00"
"04:34:57","67.8","66","94","29.90","80","0","0","0.00","0.00"
"04:39:59","67.7","65.9","94","29.90","80","0","0","0.00","0.00"
"04:44:59","67.7","65.9","94","29.91","80","0","0","0.00","0.00"
"04:49:56","67.7","65.9","94","29.91","80","0","0","0.00","0.00"
"04:54:57","67.7","65.9","94","29.91","80","0","0","0.00","0.00"
"04:59:58","67.6","65.8","94","29.91","80","0","0","0.00","0.00"
"05:04:58","67.5","65.7","94","29.91","80","0","0","0.00","0.00"
"05:09:56","67.5","65.7","94","29.91","80","0","0","0.00","0.00"
"05:14:57","67.5","65.7","94","29.92","80","0","0","0.00","0.00"
"05:19:58","67.6","65.8","94.3","29.92","80","0","0","0.00","0.00"
"05:24:59","67.6","66.1","95","29.92","80","0","0","0.00","0.00"
"05:29:59","67.5","65.8","94.2","29.92","80","0","0","0.00","0.00"
"05:34:59","67.3","65.5","94","29.92","80","0","0","0.00","0.00"
"05:39:57","67.1","65.3","94","29.92","80","0","0","0.00","0.00"
"05:44:57","66.9","65.1","94","29.92","80","0","0","0.00","0.00"
"05:49:59","66.8","65.3","94.8","29.92","80","0","0","0.00","0.00"
"05:54:59","66.8","65.3","95","29.92","80","0","0","0.00","0.00"
"05:59:56","66.7","65.2","95","29.93","80","0","0","0.00","0.00"
"06:04:56","66.7","65.2","95","29.93","80","0","0","0.00","0.00"
"06:09:59","66.6","65.1","95","29.93","80","0","0","0.00","0.00"
"06:14:57","66.6","65.1","95","29.93","80","0","0","0.00","0.00"
"06:19:57","66.7","65.2","95","29.93","80","0","0","0.00","0.00"
"06:24:58","66.6","65.1","95","29.93","80","0","0","0.00","0.00"
"06:29:59","66.7","65.2","95","29.93","80","0","0","0.00","0.00"
"06:34:59","66.7","65.2","95","29.93","80","0","0","0.00","0.00"
"06:39:56","66.7","65.2","95","29.93","80","0","0","0.00","0.00"
"06:44:56","66.7","65.2","95","29.93","80","0","0","0.00","0.00"
"06:49:56","66.6","65.1","95","29.93","80","0","0","0.00","0.00"
"06:54:57","66.6","65.1","95","29.93","80","0","0","0.00","0.00"
"06:59:57","66.6","65.4","95.8","29.94","80","0","0","0.00","0.00"
"07:04:57","66.7","65.5","96","29.94","80","0","0","0.00","0.00"
"07:09:59","66.8","65.6","96","29.94","80","0","0","0.00","0.00"
"07:14:56","66.9","65.7","96","29.95","80","0","0","0.00","0.00"
"07:19:57","67.1","65.9","96","29.95","80","0","0","0.00","0.00"
"07:24:57","67.3","66.1","96","29.95","80","0","0","0.00","0.00"
"07:29:57","67.5","66.3","96","29.95","80","0","0","0.00","0.00"
"07:34:57","67.8","66.6","96","29.95","80","0","0","0.00","0.00"
"07:39:58","68.2","67","96","29.95","80","0","0","0.00","0.00"
"07:44:58","68.5","67.3","96","29.96","80","0","0","0.00","0.00"
"07:49:58","68.9","67.7","96","29.96","80","0","0","0.00","0.00"
"07:54:58","69.3","68.1","96","29.96","80","0","0","0.00","0.00"
"07:59:58","69.7","68.2","95","29.96","80","0","0","0.00","0.00"
"08:04:58","70.2","68.5","94.3","29.96","80","0","0","0.00","0.00"
"08:09:57","70.8","68.7","92.9","29.96","80","0","0","0.00","0.00"
"08:14:57","71.5","69","91.9","29.97","80","0","0","0.00","0.00"
"08:19:57","72.1","69.3","91","29.97","80","0","0","0.00","0.00"
"08:24:56","72.6","69.8","91","29.97","80","0","0","0.00","0.00"
"08:29:56","73.3","70.5","91","29.97","80","0","0","0.00","0.00"
"08:34:59","73.9","70.3","88.6","29.97","80","0","0","0.00","0.00"
"08:39:59","74.4","70.5","87.7","29.97","80","0","0","0.00","0.00"
"08:44:59","74.9","70.6","86.3","29.98","80","0","0","0.00","0.00"
"08:49:58","75.4","70","83.1","29.98","80","0","0","0.00","0.00"
"08:54:57","76","70.2","82.1","29.98","80","0","0","0.00","0.00"
"08:59:56","76.7","70.7","81.9","29.98","133","0.1","4.8","0.00","0.00"
"09:04:59","77.2","70.3","79.5","29.98","135","1.1","4.6","0.00","0.00"
"09:09:58","77.6","70","77.6","29.98","31","1.6","4.8","0.00","0.00"
"09:14:58","77.9","70.1","77","29.98","30","1.9","4.6","0.00","0.00"
"09:19:58","78.1","69.4","74.7","29.98","19","1.7","4.8","0.00","0.00"
"09:24:59","78.4","70.2","76","29.98","19","0.2","3.5","0.00","0.00"
"09:29:59","78.8","69.8","73.9","29.99","19","1.3","3.6","0.00","0.00"
"09:34:59","79.3","69.9","73.2","29.99","19","0","1.2","0.00","0.00"
"09:39:56","79.7","69.5","71.1","29.99","304","0.6","3.6","0.00","0.00"
"09:44:56","80.1","69.3","69.7","29.99","304","1.6","3.6","0.00","0.00"
"09:49:56","80.4","69.3","69","29.99","306","1.6","4.8","0.00","0.00"
"09:54:56","80.7","70","69.9","29.99","311","0.4","2.4","0.00","0.00"
"09:59:57","81","69.8","68.8","29.99","295","0.7","3.6","0.00","0.00"
"10:04:57","81.3","70.2","69.3","29.98","229","1.2","3.6","0.00","0.00"
"10:09:57","81.4","69.8","68.1","29.98","310","1.8","4.8","0.00","0.00"
"10:14:57","81.5","69.4","67","29.99","232","2","6","0.00","0.00"
"10:19:57","81.7","69.8","67.3","29.99","196","2.2","4.8","0.00","0.00"
"10:24:57","82","69.6","66.2","29.99","199","1.9","4.8","0.00","0.00"
"10:29:58","82.3","69.5","65.5","29.99","192","1.7","4.8","0.00","0.00"
"10:34:58","82.7","70.5","66.6","29.99","224","2","4.8","0.00","0.00"
"10:39:59","83.1","70.5","65.8","29.99","286","0.9","4.6","0.00","0.00"
"10:44:56","83.3","70.7","65.8","29.99","219","3","6","0.00","0.00"
"10:49:57","83.5","70.9","66","29.99","183","2.1","4.8","0.00","0.00"
"10:54:56","83.6","70.6","65","29.99","200","2.7","6","0.00","0.00"
"10:59:57","83.5","70.1","64.2","29.99","203","2.7","8.4","0.00","0.00"
"11:04:58","83.6","69.7","63","29.99","193","2.4","6","0.00","0.00"
"11:09:58","83.8","70.3","63.9","29.99","190","1.6","4.8","0.00","0.00"
"11:14:59","84.2","70.6","63.8","29.99","179","2.9","7.2","0.00","0.00"
"11:19:56","84.6","69.9","61.6","29.99","173","2.4","6.9","0.00","0.00"
"11:24:57","84.4","69.1","60.3","29.99","260","2.5","6","0.00","0.00"
"11:29:58","84.4","69.8","61.7","30.00","242","3.4","7.2","0.00","0.00"
"11:34:58","84.5","69.8","61.4","30.00","265","2.5","6","0.00","0.00"
"11:39:56","84.8","70.5","62.3","30.00","246","3.1","6","0.00","0.00"
"11:44:57","85.3","70.7","61.8","30.00","205","3.2","7.2","0.00","0.00"
"11:49:58","85.5","71.1","62.3","29.99","201","3.2","7.2","0.00","0.00"
"11:54:59","85.4","70.5","61.4","29.99","198","3.5","6","0.00","0.00"
"11:59:56","85.3","69.7","59.7","29.99","192","2.4","6","0.00","0.00"
"12:04:57","85.5","70.1","60.3","29.99","221","2.5","5.8","0.00","0.00"
"12:09:56","85.9","70.5","60.1","29.99","214","2.5","4.8","0.00","0.00"
"12:14:58","86","70.7","60.5","29.99","230","2","4.8","0.00","0.00"
"12:19:57","86.3","70.7","59.9","29.99","233","3","6","0.00","0.00"
"12:24:58","86.2","70.9","60.5","29.99","190","4.5","8.4","0.00","0.00"
"12:29:59","86.7","71.7","61","29.99","198","2","6","0.00","0.00"
"12:34:59","87.1","70.8","58.5","29.99","206","1.6","4.8","0.00","0.00"
"12:39:57","86.6","70.9","59.8","29.99","209","2.7","6","0.00","0.00"
"12:44:58","86.8","71.7","60.9","29.99","216","1.9","4.8","0.00","0.00"
"12:49:56","87.2","71.1","59.2","29.98","275","3.4","7.2","0.00","0.00"
"12:54:56","87.1","71.1","59.2","29.98","218","3.5","7.2","0.00","0.00"
"12:59:57","87.1","70.3","57.8","29.98","222","1.9","5.8","0.00","0.00"
"13:04:58","87.2","70.9","58.5","29.98","195","2.5","4.8","0.00","0.00"
"13:09:57","87.3","71.6","59.7","29.98","131","2","3.6","0.00","0.00"
"13:14:59","87.6","70.5","56.9","29.98","185","3.6","7.2","0.00","0.00"
"13:19:56","87.6","70.3","56.7","29.97","215","3.3","8.4","0.00","0.00"
"13:24:57","87.8","70.7","57.1","29.97","222","2.3","6","0.00","0.00"
"13:29:58","87.8","70.5","56.7","29.97","213","1.4","4.8","0.00","0.00"
"13:34:58","87.8","70.2","56.1","29.97","239","4.5","12","0.00","0.00"
"13:39:59","87.3","69.8","56.1","29.97","212","3.3","8.4","0.00","0.00"
"13:44:57","87.7","69.9","55.7","29.97","209","2.9","6","0.00","0.00"
"13:49:59","87.8","69.7","55.2","29.97","245","2.8","8.4","0.00","0.00"
"13:54:56","88.3","70.3","55.4","29.97","316","3.2","6","0.00","0.00"
"13:59:57","88.4","69.7","54","29.97","284","4.8","13.2","0.00","0.00"
"14:04:58","88.2","70","55","29.96","219","2.8","7.2","0.00","0.00"
"14:09:57","88.5","70.1","54.6","29.96","276","2.4","6","0.00","0.00"
"14:14:59","88.6","70.3","55","29.96","9","1.8","6","0.00","0.00"
"14:19:56","89","70.5","54.7","29.96","201","3","7.2","0.00","0.00"
"14:24:56","89.2","70.6","54.5","29.96","229","3.4","12","0.00","0.00"
"14:29:58","89.2","70.7","54.7","29.96","319","2.9","7.2","0.00","0.00"
"14:34:58","89.6","70.5","53.5","29.96","237","3","6","0.00","0.00"
"14:39:57","89.7","71.1","54.6","29.96","260","2.7","6","0.00","0.00"
"14:44:57","89.5","70.1","53","29.96","234","2.1","6","0.00","0.00"
"14:49:59","89.6","70.8","54.2","29.95","229","3.8","12","0.00","0.00"
"14:54:59","90.1","70.4","52.6","29.95","207","4.8","11.5","0.00","0.00"
"14:59:56","89.8","70.1","52.5","29.95","187","3.7","10.8","0.00","0.00"
"15:04:57","90","70.4","52.6","29.95","203","3.8","8.4","0.00","0.00"
"15:09:56","89.8","70","52.4","29.95","190","3.5","7.2","0.00","0.00"
"15:14:58","89.8","70.2","52.8","29.95","214","3.8","7.2","0.00","0.00"
"15:19:59","89.8","69.8","52","29.94","228","2.6","6","0.00","0.00"
"15:24:56","89.9","69.8","51.9","29.94","216","2.3","4.8","0.00","0.00"
"15:29:57","90","70.2","52.3","29.94","162","3.2","6","0.00","0.00"
"15:34:58","90.3","70.1","51.7","29.93","180","2.7","7.2","0.00","0.00"
"15:39:56","90.3","69.7","50.9","29.93","199","2.7","7.2","0.00","0.00"
"15:44:56","90.6","70.5","51.9","29.93","177","3.6","7.2","0.00","0.00"
"15:49:58","90.8","69.2","49.4","29.92","211","3.1","6","0.00","0.00"
"15:54:59","90.8","69.8","50.4","29.92","206","4","8.4","0.00","0.00"
"15:59:56","90.8","69.6","50.1","29.92","240","3.1","7.2","0.00","0.00"
"16:04:57","90.5","68.6","48.8","29.92","220","3.6","7.2","0.00","0.00"
"16:09:56","90.7","69.4","50","29.92","171","3.4","8.4","0.00","0.00"
"16:14:58","90.7","69.4","49.9","29.92","181","3.2","7.2","0.00","0.00"
"16:19:59","90.8","69.4","49.7","29.91","174","3.4","12","0.00","0.00"
"16:24:56","90.7","69.5","50","29.91","197","2.7","7.2","0.00","0.00"
"16:29:57","90.8","69.6","50.1","29.91","211","3.8","8.4","0.00","0.00"
"16:34:58","90.9","69.2","49.3","29.90","195","4.1","7.2","0.00","0.00"
"16:39:55","90.8","68.5","48.2","29.90","178","3.7","10.8","0.00","0.00"
"16:44:56","90.7","68.1","47.8","29.90","184","3.4","10.8","0.00","0.00"
"16:49:57","90.5","67.9","47.6","29.90","195","4.6","10.8","0.00","0.00"
"16:54:58","90.2","67.7","47.8","29.90","210","4.9","10.8","0.00","0.00"
"16:59:59","89.9","67.8","48.2","29.90","196","3.5","6","0.00","0.00"
"17:04:59","89.9","67.9","48.5","29.90","207","4.6","10.8","0.00","0.00"
"17:09:59","89.9","67.5","47.8","29.90","204","4.6","9.2","0.00","0.00"
"17:14:57","90","69","50.2","29.90","181","3.4","9.6","0.00","0.00"
"17:19:58","90.1","67.6","47.7","29.90","190","5.6","13.2","0.00","0.00"
"17:24:59","89.8","67.6","48.2","29.90","169","5.1","13.2","0.00","0.00"
"17:29:56","89.5","67.3","48.1","29.90","155","3.9","12","0.00","0.00"
"17:34:56","89.2","66.7","47.6","29.89","181","4.7","12","0.00","0.00"
"17:39:58","89.1","67.1","48.4","29.89","185","4.2","8.4","0.00","0.00"
"17:44:59","89.1","67.7","49.3","29.89","180","3.4","9.6","0.00","0.00"
"17:49:56","89.2","68.7","51","29.89","194","3.6","8.4","0.00","0.00"
"17:54:57","89.3","68.2","50.1","29.89","181","4.5","10.8","0.00","0.00"
"17:59:58","89","68.3","50.6","29.90","173","4","9.6","0.00","0.00"
"18:04:59","88.7","67.9","50.2","29.90","177","4.2","10.8","0.00","0.00"
"18:09:58","88.5","66.8","48.8","29.90","209","5.8","12","0.00","0.00"
"18:14:58","88.4","66.5","48.5","29.90","174","4.9","12","0.00","0.00"
"18:19:56","88.1","65.7","47.6","29.90","165","3.9","15.6","0.00","0.00"
"18:24:56","87.9","65.8","48","29.90","183","5.5","16.1","0.00","0.00"
"18:29:57","87.8","66.6","49.6","29.90","175","3.8","8.4","0.00","0.00"
"18:34:58","87.7","66.2","49.1","29.90","201","5.1","10.8","0.00","0.00"
"18:39:56","87.5","66.2","49.3","29.90","192","5","13.2","0.00","0.00"
"18:44:57","87.3","65.9","49.1","29.91","205","4.5","9.6","0.00","0.00"
"18:49:58","87.1","66.5","50.5","29.91","193","3.5","8.1","0.00","0.00"
"18:54:59","86.9","66.7","51.2","29.91","190","3.7","7.2","0.00","0.00"
"18:59:56","86.8","67.3","52.5","29.91","181","3.8","8.4","0.00","0.00"
"19:04:57","86.6","67.7","53.4","29.91","206","3.3","7.2","0.00","0.00"
"19:09:56","86.4","68.1","54.6","29.91","202","3.1","6","0.00","0.00"
"19:14:58","86.2","68.5","55.7","29.91","183","2.6","5.8","0.00","0.00"
"19:19:59","85.9","68.6","56.4","29.91","212","2.4","6","0.00","0.00"
"19:24:56","85.6","68.7","57.2","29.91","176","2.3","6","0.00","0.00"
"19:29:57","85.3","68.8","57.8","29.91","162","2.6","4.8","0.00","0.00"
"19:34:58","85.2","68.8","58","29.91","182","2.6","7.2","0.00","0.00"
"19:39:56","85","68.9","58.6","29.91","168","4.2","12","0.00","0.00"
"19:44:59","84.8","68.8","58.8","29.92","178","3.2","8.1","0.00","0.00"
"19:49:56","84.5","68.7","59.1","29.92","210","2.7","7.2","0.00","0.00"
"19:54:59","84.2","68.6","59.7","29.92","197","2.8","6","0.00","0.00"
"19:59:56","83.9","68.6","60.2","29.92","196","3.7","8.4","0.00","0.00"
"20:04:57","83.7","68.7","60.8","29.92","195","2.4","6","0.00","0.00"
"20:09:57","83.5","68.6","61","29.92","201","3","6","0.00","0.00"
"20:14:59","83.3","68.5","61.2","29.92","196","2.2","4.8","0.00","0.00"
"20:19:57","83.1","68.6","61.8","29.92","189","2.1","4.8","0.00","0.00"
"20:24:58","82.9","68.5","62","29.92","189","1.3","3.6","0.00","0.00"
"20:29:55","82.7","68.6","62.7","29.93","189","0.8","3.6","0.00","0.00"
"20:34:57","82.4","68.5","63","29.93","189","0.3","1.2","0.00","0.00"
"20:39:59","82.2","68.6","63.7","29.93","189","0.4","2.4","0.00","0.00"
"20:44:56","81.9","68.5","64","29.93","189","0.6","1.2","0.00","0.00"
"20:49:58","81.6","68.6","64.8","29.93","196","0.1","1.2","0.00","0.00"
"20:54:56","81.3","68.5","65.2","29.93","51","0.9","3.6","0.00","0.00"
"20:59:57","81.1","68.7","66","29.93","125","1.8","4.8","0.00","0.00"
"21:04:58","81","68.6","66.2","29.92","154","1.1","4.8","0.00","0.00"
"21:09:57","80.8","68.8","67","29.92","131","1.3","4.6","0.00","0.00"
"21:14:59","80.7","68.9","67.3","29.93","150","1.4","4.8","0.00","0.00"
"21:19:57","80.5","69","68","29.93","164","1.6","2.4","0.00","0.00"
"21:24:59","80.3","68.9","68.4","29.93","164","1.2","2.4","0.00","0.00"
"21:29:56","80.1","69","69","29.93","164","0.7","2.4","0.00","0.00"
"21:34:57","80","68.9","69.2","29.93","164","0.4","2.4","0.00","0.00"
"21:39:56","79.9","69.1","69.9","29.93","164","0.5","2.3","0.00","0.00"
"21:44:57","79.7","69.1","70.2","29.93","164","0.2","1.2","0.00","0.00"
"21:49:59","79.4","69.4","71.3","29.93","164","0","0","0.00","0.00"
"21:54:58","79.1","69.1","71.3","29.93","164","0","1.2","0.00","0.00"
"21:59:59","78.7","69","72.3","29.94","164","0","0","0.00","0.00"
"22:04:59","78.3","68.9","73","29.94","164","0","0","0.00","0.00"
"22:09:57","77.8","68.8","73.9","29.94","164","0","0","0.00","0.00"
"22:14:58","77.5","68.9","75","29.95","164","1","2.4","0.00","0.00"
"22:19:59","77.3","69","75.7","29.95","272","1.6","4.8","0.00","0.00"
"22:24:59","77.3","69","75.5","29.95","270","2.1","6","0.00","0.00"
"22:29:56","77.9","69.3","75","29.96","348","2.9","9.6","0.00","0.00"
"22:34:56","78.4","69.5","74.2","29.96","317","2.1","4.8","0.00","0.00"
"22:39:58","78.6","69.6","74","29.96","273","1.6","4.8","0.00","0.00"
"22:44:58","78.5","69.5","74","29.96","273","0.5","3.5","0.00","0.00"
"22:49:59","78.3","69.4","74.3","29.95","273","0","0","0.00","0.00"
"22:54:56","77.9","69.3","75","29.95","273","0","1.2","0.00","0.00"
"22:59:56","77.5","69","75.3","29.96","273","0.1","2.4","0.00","0.00"
"23:04:56","77.2","69","75.8","29.96","273","1.1","3.6","0.00","0.00"
"23:09:59","77","68.9","76","29.96","273","0.8","3.6","0.00","0.00"
"23:14:56","76.7","68.6","75.8","29.96","282","0.5","3.6","0.00","0.00"
"23:19:57","76.5","68.4","76","29.95","290","0","0","0.00","0.00"
"23:24:57","76.2","68.3","76.3","29.95","290","0.1","1.2","0.00","0.00"
"23:29:58","75.9","68","76.5","29.96","290","0.3","2.4","0.00","0.00"
"23:34:58","75.7","68","77","29.96","290","0","1.2","0.00","0.00"
"23:39:56","75.5","67.9","77.3","29.96","290","0","1.2","0.00","0.00"
"23:44:56","75.2","67.9","77.9","29.96","290","0","1.2","0.00","0.00"
